Location: Peach Mountain Observatory
(42.3967°N, 83.9367°W)
Time: 12:26:44
(UTC-04:00)

deb Explorer IX - Pass Details

Date: 23 January 2020
Orbit: 547 x 1100 km, 38.8° (Epoch: 04 April)

Event Time Altitude Azimuth Distance (km) Brightness Sun altitude
Rises 03:35:51 0° 277° (W) 3,894 - -47.9°
Reaches altitude 10° 03:38:50 10° 271° (W) 2,904 - -47.4°
Maximum altitude 03:45:27 43° 203° (SSW) 1,386 - -46.2°
Drops below altitude 10° 03:51:24 10° 134° (SE) 2,609 - -45.2°
Exits shadow 03:52:37 - 131° (SE) 3,010 ? -44.9°
Sets 03:53:57 0° 128° (SE) 3,464 ? -44.7°
